2020-10-27 00:07:56 r, 19.27m,0000000002Hz,0000282127c,0000000.612s, 006.1C,00002191
2020-10-27 00:17:54 r, 19.31m,0000000001Hz,0000291827c,0000000.633s, 006.1C,00002191
2020-10-27 00:27:54 r, 18.51m,0000000003Hz,0000139276c,0000000.302s, 006.1C,00002191
2020-10-27 00:37:54 r, 18.58m,0000000003Hz,0000148362c,0000000.322s, 006.1C,00002191
2020-10-27 00:47:55 r, 18.65m,0000000003Hz,0000158507c,0000000.344s, 006.4C,00002191
2020-10-27 00:57:54 r, 18.61m,0000000003Hz,0000151721c,0000000.329s, 006.4C,00002191
2020-10-27 01:07:55 r, 19.53m,0000000001Hz,0000356057c,0000000.773s, 006.4C,00002191
2020-10-27 01:17:54 r, 19.60m,0000000002Hz,0000377196c,0000000.819s, 006.4C,00002191
2020-10-27 01:27:54 r, 19.64m,0000000001Hz,0000393350c,0000000.854s, 006.1C,00002191
2020-10-27 01:37:54 r, 19.68m,0000000001Hz,0000408983c,0000000.888s, 006.1C,00002191
2020-10-27 01:47:56 r, 19.74m,0000000001Hz,0000427819c,0000000.928s, 005.8C,00002191
2020-10-27 01:57:53 r, 19.79m,0000000001Hz,0000448145c,0000000.973s, 005.8C,00002191
2020-10-27 02:07:56 r, 19.85m,0000000001Hz,0000472443c,0000001.025s, 005.4C,00002191
2020-10-27 02:17:54 r, 19.92m,0000000001Hz,0000503973c,0000001.094s, 005.4C,00002191
2020-10-27 02:27:54 r, 19.98m,0000000001Hz,0000535687c,0000001.163s, 005.1C,00002191
2020-10-27 02:37:56 r, 20.04m,0000000001Hz,0000567352c,0000001.231s, 005.1C,00002191
2020-10-27 02:47:54 r, 20.11m,0000000001Hz,0000604924c,0000001.313s, 005.1C,00002191
2020-10-27 02:57:54 r, 20.21m,0000000001Hz,0000661423c,0000001.435s, 005.1C,00002191
2020-10-27 03:07:54 r, 20.29m,0000000001Hz,0000712328c,0000001.546s, 005.1C,00002191
2020-10-27 03:17:55 r, 20.40m,0000000001Hz,0000786896c,0000001.708s, 004.8C,00002191
2020-10-27 03:27:54 r, 20.51m,0000000001Hz,0000876298c,0000001.902s, 004.8C,00002191
2020-10-27 03:37:55 r, 20.64m,0000000001Hz,0000976336c,0000002.119s, 004.8C,00002191
2020-10-27 03:47:54 r, 20.72m,0000000001Hz,0001048055c,0000002.274s, 004.8C,00002191
2020-10-27 03:57:53 r, 20.75m,0000000000Hz,0001088771c,0000002.363s, 004.8C,00002191
2020-10-27 04:07:54 r, 20.76m,0000000001Hz,0001091692c,0000002.369s, 004.5C,00002191
2020-10-27 04:17:56 r, 20.73m,0000000000Hz,0001062078c,0000002.305s, 004.5C,00002191
2020-10-27 04:27:53 r, 20.74m,0000000001Hz,0001068382c,0000002.319s, 004.5C,00002191
2020-10-27 04:37:56 r, 20.70m,0000000000Hz,0001029927c,0000002.235s, 004.5C,00002191
2020-10-27 04:47:54 r, 20.52m,0000000001Hz,0000883879c,0000001.918s, 004.5C,00002191
2020-10-27 04:57:54 r, 20.48m,0000000000Hz,0000847698c,0000001.840s, 004.5C,00002191
2020-10-27 05:07:56 r, 20.52m,0000000000Hz,0000883376c,0000001.917s, 004.5C,00002191
2020-10-27 05:17:54 r, 20.09m,0000000001Hz,0000592296c,0000001.285s, 004.5C,00002191
2020-10-27 05:27:53 r, 20.04m,0000000001Hz,0000567275c,0000001.231s, 004.5C,00002191
2020-10-27 05:37:54 r, 19.65m,0000000001Hz,0000397223c,0000000.862s, 004.5C,00002191
2020-10-27 05:47:55 r, 19.53m,0000000001Hz,0000356244c,0000000.773s, 004.5C,00002191
2020-10-27 05:57:53 r, 19.45m,0000000001Hz,0000330326c,0000000.717s, 004.8C,00002191
2020-10-27 06:07:55 r, 19.28m,0000000002Hz,0000284482c,0000000.617s, 004.8C,00002191
2020-10-27 06:17:54 r, 19.23m,0000000001Hz,0000271032c,0000000.588s, 005.1C,00002191
2020-10-27 06:27:53 r, 19.25m,0000000002Hz,0000274551c,0000000.596s, 005.1C,00002191
2020-10-27 06:37:54 r, 19.04m,0000000002Hz,0000226614c,0000000.492s, 005.4C,00002191
2020-10-27 06:47:56 r, 18.88m,0000000002Hz,0000194851c,0000000.423s, 005.4C,00002191
2020-10-27 06:57:53 r, 18.79m,0000000002Hz,0000179255c,0000000.389s, 005.8C,00002191
2020-10-27 07:07:56 r, 18.39m,0000000004Hz,0000124460c,0000000.270s, 005.8C,00002191
2020-10-27 07:17:54 r, 17.44m,0000000009Hz,0000051902c,0000000.113s, 006.1C,00002191
2020-10-27 07:27:53 r, 15.74m,0000000041Hz,0000010930c,0000000.024s, 006.1C,00002191
2020-10-27 07:37:56 r, 13.66m,0000000291Hz,0000000000c,0000000.000s, 006.1C,00002191
2020-10-27 07:47:54 r, 11.50m,0000002126Hz,0000000000c,0000000.000s, 006.1C,00002191
2020-10-27 07:57:53 r, 09.64m,0000011823Hz,0000000000c,0000000.000s, 006.1C,00002191
2020-10-27 08:07:54 r, 08.31m,0000040245Hz,0000000000c,0000000.000s, 006.1C,00002191
2020-10-27 08:17:55 r, 07.61m,0000076344Hz,0000000000c,0000000.000s, 006.1C,00002191
2020-10-27 08:27:53 r, 06.87m,0000151420Hz,0000000000c,0000000.000s, 006.1C,00002191
2020-10-27 08:37:55 r, 06.16m,0000292446Hz,0000000000c,0000000.000s, 006.4C,00002191
2020-10-27 08:47:54 r, 06.06m,0000321442Hz,0000000000c,0000000.000s, 006.7C,00002191
2020-10-27 08:57:53 r, 00.00m,0000598521Hz,0000000000c,0000000.000s, 006.7C,00002191
2020-10-27 09:07:56 r, 00.00m,0000598522Hz,0000000000c,0000000.000s, 007.0C,00002191
2020-10-27 09:17:54 r, 00.00m,0000598429Hz,0000000000c,0000000.000s, 007.4C,00002191
2020-10-27 09:27:54 r, 00.00m,0000598411Hz,0000000000c,0000000.000s, 007.7C,00002191
2020-10-27 09:37:56 r, 00.00m,0000598363Hz,0000000000c,0000000.000s, 008.0C,00002191
2020-10-27 09:47:54 r, 00.00m,0000598365Hz,0000000000c,0000000.000s, 008.0C,00002191
2020-10-27 09:57:53 r, 00.00m,0000598392Hz,0000000000c,0000000.000s, 008.0C,00002191
2020-10-27 10:07:54 r, 00.00m,0000598281Hz,0000000000c,0000000.000s, 008.3C,00002191
2020-10-27 10:17:55 r, 00.00m,0000598294Hz,0000000000c,0000000.000s, 008.7C,00002191
2020-10-27 10:27:53 r, 00.00m,0000598297Hz,0000000000c,0000000.000s, 009.0C,00002191
2020-10-27 10:37:55 r, 00.00m,0000598197Hz,0000000000c,0000000.000s, 009.3C,00002191
2020-10-27 10:47:54 r, 00.00m,0000598045Hz,0000000000c,0000000.000s, 009.9C,00002191
2020-10-27 10:57:53 r, 00.00m,0000598078Hz,0000000000c,0000000.000s, 010.6C,00002191
2020-10-27 11:07:54 r, 00.00m,0000598180Hz,0000000000c,0000000.000s, 010.9C,00002191
2020-10-27 11:17:56 r, 00.00m,0000598119Hz,0000000000c,0000000.000s, 011.2C,00002191
2020-10-27 11:27:53 r, 00.00m,0000598153Hz,0000000000c,0000000.000s, 011.2C,00002191
2020-10-27 11:37:53 r, 00.00m,0000598125Hz,0000000000c,0000000.000s, 011.2C,00002191
2020-10-27 11:47:54 r, 00.00m,0000598009Hz,0000000000c,0000000.000s, 011.2C,00002191
2020-10-27 11:57:53 r, 00.00m,0000598158Hz,0000000000c,0000000.000s, 011.2C,00002191
2020-10-27 12:07:53 r, 00.00m,0000598164Hz,0000000000c,0000000.000s, 010.9C,00002191
2020-10-27 12:17:54 r, 00.00m,0000598067Hz,0000000000c,0000000.000s, 010.9C,00002191
2020-10-27 12:27:53 r, 00.00m,0000598023Hz,0000000000c,0000000.000s, 011.2C,00002191
2020-10-27 12:37:53 r, 00.00m,0000598071Hz,0000000000c,0000000.000s, 011.2C,00002191
2020-10-27 12:47:55 r, 00.00m,0000598122Hz,0000000000c,0000000.000s, 012.2C,00002191
2020-10-27 12:57:53 r, 00.00m,0000598010Hz,0000000000c,0000000.000s, 012.5C,00002191
2020-10-27 13:07:53 r, 00.00m,0000597989Hz,0000000000c,0000000.000s, 012.8C,00002191
2020-10-27 13:17:56 r, 00.00m,0000597983Hz,0000000000c,0000000.000s, 013.2C,00002191
2020-10-27 13:27:53 r, 00.00m,0000597978Hz,0000000000c,0000000.000s, 013.2C,00002191
2020-10-27 13:37:53 r, 00.00m,0000597891Hz,0000000000c,0000000.000s, 013.5C,00002191
2020-10-27 13:47:56 r, 00.00m,0000597742Hz,0000000000c,0000000.000s, 013.8C,00002191
2020-10-27 13:57:53 r, 00.00m,0000597759Hz,0000000000c,0000000.000s, 014.5C,00002191
2020-10-27 14:07:53 r, 00.00m,0000597776Hz,0000000000c,0000000.000s, 014.5C,00002191
2020-10-27 14:17:54 r, 00.00m,0000597808Hz,0000000000c,0000000.000s, 014.1C,00002191
2020-10-27 14:27:53 r, 00.00m,0000597924Hz,0000000000c,0000000.000s, 013.2C,00002191
2020-10-27 14:37:53 r, 00.00m,0000597946Hz,0000000000c,0000000.000s, 013.2C,00002191
2020-10-27 14:47:54 r, 00.00m,0000598040Hz,0000000000c,0000000.000s, 013.2C,00002191
2020-10-27 14:57:53 r, 00.00m,0000597959Hz,0000000000c,0000000.000s, 013.2C,00002191
2020-10-27 15:07:53 r, 00.00m,0000597844Hz,0000000000c,0000000.000s, 013.5C,00002191
2020-10-27 15:17:55 r, 00.00m,0000597871Hz,0000000000c,0000000.000s, 013.8C,00002191
2020-10-27 15:27:53 r, 00.00m,0000597803Hz,0000000000c,0000000.000s, 013.5C,00002191
2020-10-27 15:37:53 r, 00.00m,0000597793Hz,0000000000c,0000000.000s, 013.5C,00002191
2020-10-27 15:47:56 r, 00.00m,0000597782Hz,0000000000c,0000000.000s, 013.8C,00002191
2020-10-27 15:57:54 r, 00.00m,0000597856Hz,0000000000c,0000000.000s, 014.1C,00002191
2020-10-27 16:07:53 r, 00.00m,0000597834Hz,0000000000c,0000000.000s, 014.5C,00002191
2020-10-27 16:17:54 r, 00.00m,0000597837Hz,0000000000c,0000000.000s, 014.5C,00002191
2020-10-27 16:27:55 r, 00.00m,0000597783Hz,0000000000c,0000000.000s, 014.5C,00002191
2020-10-27 16:37:53 r, 00.00m,0000597796Hz,0000000000c,0000000.000s, 014.5C,00002191
2020-10-27 16:47:55 r, 00.00m,0000597814Hz,0000000000c,0000000.000s, 014.1C,00002191
2020-10-27 16:57:54 r, 00.00m,0000597938Hz,0000000000c,0000000.000s, 013.8C,00002191
2020-10-27 17:07:53 r, 00.00m,0000544317Hz,0000000000c,0000000.000s, 013.5C,00002191
2020-10-27 17:17:54 r, 00.00m,0000535093Hz,0000000000c,0000000.000s, 012.8C,00002191
2020-10-27 17:27:56 r, 06.14m,0000298662Hz,0000000000c,0000000.000s, 012.8C,00002191
2020-10-27 17:37:53 r, 06.45m,0000222331Hz,0000000000c,0000000.000s, 012.8C,00002191
2020-10-27 17:47:56 r, 06.08m,0000315114Hz,0000000000c,0000000.000s, 012.5C,00002191
2020-10-27 17:57:54 r, 06.19m,0000283492Hz,0000000000c,0000000.000s, 012.8C,00002191
2020-10-27 18:07:53 r, 07.42m,0000090785Hz,0000000000c,0000000.000s, 012.8C,00002191
2020-10-27 18:17:56 r, 08.81m,0000025353Hz,0000000000c,0000000.000s, 012.8C,00002191
2020-10-27 18:27:54 r, 09.83m,0000009891Hz,0000000000c,0000000.000s, 012.8C,00002191
2020-10-27 18:37:53 r, 11.96m,0000001395Hz,0000000000c,0000000.000s, 013.2C,00002191
2020-10-27 18:47:54 r, 13.96m,0000000220Hz,0000000000c,0000000.000s, 013.2C,00002191
2020-10-27 18:57:55 r, 15.88m,0000000037Hz,0000012343c,0000000.027s, 013.2C,00002191
2020-10-27 19:07:53 r, 17.07m,0000000013Hz,0000037074c,0000000.080s, 013.5C,00002191
2020-10-27 19:17:55 r, 17.79m,0000000006Hz,0000071814c,0000000.156s, 013.5C,00002191
2020-10-27 19:27:54 r, 17.94m,0000000006Hz,0000082377c,0000000.179s, 013.8C,00002191
2020-10-27 19:37:53 r, 17.93m,0000000006Hz,0000081654c,0000000.177s, 013.8C,00002191
2020-10-27 19:47:54 r, 17.85m,0000000006Hz,0000076121c,0000000.165s, 013.8C,00002191
2020-10-27 19:57:56 r, 17.80m,0000000007Hz,0000072579c,0000000.158s, 014.1C,00002191
2020-10-27 20:07:53 r, 17.61m,0000000008Hz,0000060441c,0000000.131s, 014.1C,00002191
2020-10-27 20:17:56 r, 17.58m,0000000008Hz,0000058815c,0000000.128s, 014.1C,00002191
2020-10-27 20:27:54 r, 17.62m,0000000007Hz,0000061051c,0000000.132s, 014.1C,00002191
2020-10-27 20:37:53 r, 17.84m,0000000006Hz,0000074928c,0000000.163s, 014.1C,00002191
2020-10-27 20:47:56 r, 17.76m,0000000006Hz,0000070029c,0000000.152s, 014.5C,00002191
2020-10-27 20:57:54 r, 17.87m,0000000006Hz,0000076844c,0000000.167s, 014.5C,00002191
2020-10-27 21:07:54 r, 17.65m,0000000007Hz,0000062875c,0000000.136s, 014.5C,00002191
2020-10-27 21:17:54 r, 17.66m,0000000007Hz,0000063330c,0000000.137s, 014.5C,00002191
2020-10-27 21:27:55 r, 17.68m,0000000007Hz,0000064751c,0000000.141s, 014.5C,00002191
2020-10-27 21:37:53 r, 17.69m,0000000007Hz,0000065508c,0000000.142s, 014.8C,00002191
2020-10-27 21:47:55 r, 17.43m,0000000009Hz,0000051391c,0000000.112s, 014.8C,00002191
2020-10-27 21:57:54 r, 17.37m,0000000009Hz,0000048780c,0000000.106s, 014.8C,00002191
2020-10-27 22:07:53 r, 17.37m,0000000010Hz,0000048887c,0000000.106s, 014.8C,00002191
2020-10-27 22:17:54 r, 17.35m,0000000009Hz,0000047787c,0000000.104s, 015.1C,00002191
2020-10-27 22:27:56 r, 17.50m,0000000008Hz,0000054796c,0000000.119s, 015.1C,00002191
2020-10-27 22:37:53 r, 17.70m,0000000007Hz,0000065633c,0000000.142s, 015.1C,00002191
2020-10-27 22:47:56 r, 17.53m,0000000008Hz,0000056550c,0000000.123s, 015.1C,00002191
2020-10-27 22:57:54 r, 17.78m,0000000006Hz,0000071574c,0000000.155s, 015.4C,00002191
2020-10-27 23:07:53 r, 17.44m,0000000009Hz,0000051791c,0000000.112s, 015.4C,00002191
2020-10-27 23:17:54 r, 17.56m,0000000008Hz,0000058016c,0000000.126s, 015.4C,00002191
2020-10-27 23:27:55 r, 17.50m,0000000008Hz,0000054933c,0000000.119s, 015.4C,00002191
2020-10-27 23:37:53 r, 17.63m,0000000008Hz,0000061838c,0000000.134s, 015.1C,00002191
2020-10-27 23:47:55 r, 17.58m,0000000007Hz,0000059124c,0000000.128s, 015.1C,00002191
2020-10-27 23:57:54 r, 17.55m,0000000008Hz,0000057437c,0000000.125s, 015.1C,00002191
